Wind_Speed
35 35 34 34 32 30 30 31 31 31 32 32 32 33 34 36 37 38 39 41 42 43 44 46 47 47 48 48 48 48 48 48 49 50 51 51 51 51 51 52 52 52 52 53 53 53 53 54 54 55 55 55 58 59 55 53 53 54 54 54 55 56 56 57 58 58 58 58 58 58 59 60 60 59 58 57 57 55 52 49 46 45 45 47 50
38 38 38 36 34 33 33 33 33 33 33 33 33 34 35 37 39 40 41 43 44 44 45 46 47 48 48 48 48 48 49 49 50 51 52 52 51 51 51 50 50 50 50 52 52 53 53 53 53 54 54 55 57 56 53 53 54 54 54 54 55 56 56 57 57 57 56 56 57 58 59 59 58 57 56 56 55 52 49 46 45 45 46 48 51
41 40 39 37 36 35 35 34 35 34 34 34 34 35 37 38 40 41 42 44 45 45 46 46 46 47 47 47 48 48 49 50 51 52 52 52 52 52 51 50 50 50 50 51 51 52 53 52 53 53 53 53 51 51 56 59 58 54 52 53 55 56 55 54 53 54 53 53 54 55 56 55 54 54 54 54 52 48 45 44 44 45 47 49 51
43 42 40 39 38 37 37 36 36 36 36 36 36 37 38 40 41 42 42 44 44 45 45 45 46 46 46 46 47 48 49 50 51 52 52 52 52 51 50 50 50 50 51 51 52 52 52 52 53 52 52 52 51 56 63 62 55 49 49 52 54 53 52 51 50 51 51 51 52 52 52 52 53 53 52 49 46 43 43 44 44 45 48 50 52
45 44 43 41 40 39 39 38 38 38 38 39 39 40 40 41 42 42 43 44 44 45 45 45 45 44 44 45 45 46 47 48 50 50 50 50 50 50 50 50 51 51 52 52 53 53 53 53 53 52 53 53 54 56 56 49 45 46 52 54 51 48 48 49 48 49 49 50 50 51 51 51 51 48 45 43 42 42 42 43 44 46 48 50 54
47 46 45 43 43 42 42 41 41 41 41 41 41 42 42 42 42 42 43 43 44 45 44 43 42 41 41 42 43 44 46 48 48 49 50 50 51 50 50 51 51 52 52 52 53 53 53 52 52 51 52 51 50 51 49 45 46 53 58 54 46 44 47 48 48 48 49 49 49 50 50 48 46 42 40 39 40 41 42 43 45 47 49 52 57
48 47 46 46 45 44 44 43 43 43 43 43 43 43 44 44 43 43 43 43 44 43 41 39 38 38 38 39 41 43 44 46 48 49 51 52 52 52 52 52 52 52 52 52 52 52 51 50 49 49 49 49 49 49 49 50 51 55 56 49 43 46 49 48 48 48 48 48 49 48 47 44 40 38 37 38 39 41 43 44 47 48 50 55 60
50 49 49 48 47 46 45 45 44 44 44 44 44 45 45 45 44 43 44 43 41 39 37 35 35 35 36 37 39 41 43 45 48 50 52 53 54 54 54 53 53 53 53 53 52 50 49 48 47 46 46 47 46 43 44 47 48 49 51 48 46 49 50 48 48 47 47 48 48 46 44 40 37 36 36 37 39 42 44 46 49 50 53 58 61
52 51 51 50 49 48 46 46 45 45 45 45 45 46 46 45 43 43 43 41 38 35 33 32 32 33 34 36 39 41 44 46 49 51 53 54 55 55 55 54 54 54 53 52 50 49 47 46 43 42 41 40 40 41 44 48 47 44 45 46 47 50 50 48 47 47 48 48 46 43 40 36 36 36 37 39 41 44 46 49 51 52 56 60 62
53 53 52 51 49 48 47 47 46 46 46 46 47 47 45 44 44 43 41 38 35 32 31 30 31 32 35 37 40 43 45 48 50 52 53 54 54 54 53 54 53 52 51 49 47 46 44 42 40 39 37 36 39 42 45 45 43 40 41 44 48 49 49 47 47 46 47 46 44 41 38 37 38 39 40 42 44 48 50 52 53 56 59 61 62
54 53 52 51 50 49 49 48 47 47 47 47 48 47 45 44 44 42 40 36 33 31 30 30 31 33 36 39 41 43 46 48 50 51 52 52 50 49 49 49 49 48 46 45 43 42 40 39 37 37 36 36 37 39 40 41 39 39 42 47 49 48 47 46 46 45 45 44 42 41 40 41 43 43 44 47 49 52 53 54 56 58 60 62 62
54 54 53 52 52 51 50 49 48 48 48 49 48 47 45 45 44 41 38 35 33 31 30 30 31 34 37 39 42 44 46 48 49 49 48 47 45 44 43 44 43 42 41 41 40 39 37 36 35 34 35 36 35 34 36 38 39 41 46 48 47 46 45 45 44 44 43 43 43 43 44 45 46 47 49 51 53 54 54 55 58 60 61 62 62
56 56 55 54 53 52 51 50 49 49 49 49 49 47 46 45 43 40 38 35 33 32 31 31 32 35 37 40 42 45 47 48 47 46 44 42 40 39 39 38 38 38 38 37 37 36 35 34 33 32 34 34 33 33 35 36 39 42 44 44 43 43 43 43 43 43 43 43 44 45 46 47 49 50 51 53 54 54 55 58 60 61 61 62 63
58 58 57 57 55 53 52 51 50 50 50 50 49 48 47 45 43 40 39 37 35 34 33 32 33 36 38 40 43 46 48 47 46 43 41 38 37 36 36 35 35 36 36 36 36 35 35 34 33 33 33 33 32 33 34 36 38 39 40 40 41 42 42 43 44 44 44 45 45 46 47 49 50 51 53 54 55 56 58 60 61 61 63 64 66
59 59 59 59 57 54 52 51 51 52 52 51 50 49 48 45 43 41 40 39 38 36 35 34 35 37 39 41 44 46 47 46 44 41 38 36 35 35 35 35 35 36 36 36 36 36 35 35 34 33 33 33 33 34 34 35 36 37 38 39 40 41 42 43 45 45 45 46 46 47 49 50 51 53 54 55 56 58 59 61 62 63 65 66 67
60 61 61 60 58 55 53 53 53 53 53 52 51 51 49 46 44 43 43 42 40 38 36 35 35 37 39 41 43 44 44 44 42 39 36 34 33 34 34 35 35 35 35 35 35 36 35 35 34 34 34 34 34 34 35 36 37 38 38 39 40 41 42 44 45 46 46 47 48 49 50 51 53 54 56 57 58 59 61 62 64 65 67 68 68
61 62 62 60 58 55 54 54 55 55 54 53 53 51 49 46 45 46 46 44 41 40 37 35 36 37 38 39 39 40 41 41 40 38 36 33 32 33 33 34 34 34 34 34 35 35 35 35 34 34 34 35 35 36 37 38 39 39 40 41 42 42 43 45 47 47 48 49 50 51 53 54 55 57 58 59 60 61 63 65 66 67 68 69 69
62 63 62 60 58 56 56 57 57 57 55 54 53 51 48 48 48 48 47 44 42 40 37 35 36 37 36 36 36 37 38 38 38 37 36 34 33 32 33 33 34 34 34 35 35 35 35 35 35 36 36 36 37 38 39 40 41 41 42 43 44 45 46 48 49 49 50 51 52 53 55 56 57 58 60 61 62 63 65 66 66 68 69 68 68
62 61 60 59 58 57 57 58 58 57 56 54 52 50 49 49 50 50 48 45 43 41 37 36 36 36 35 35 35 35 35 35 35 36 36 35 34 33 33 33 34 35 36 36 36 36 36 37 37 38 39 40 40 40 42 43 44 44 45 46 47 48 49 50 51 51 52 53 54 55 56 57 58 60 61 62 63 64 65 66 67 68 68 68 69
58 57 57 58 57 57 58 58 58 57 55 54 51 50 50 51 52 51 49 46 44 41 38 36 36 35 34 35 35 35 33 32 34 36 36 35 34 34 34 34 35 36 37 38 38 38 38 39 40 41 42 42 43 43 45 46 46 46 46 47 48 49 50 50 51 51 52 53 54 55 57 58 59 61 62 64 65 65 66 66 67 69 69 69 69
55 55 56 57 58 58 59 59 57 56 55 53 51 50 51 52 53 52 50 47 45 41 38 37 37 36 34 34 35 36 35 34 36 37 37 37 36 36 36 36 36 37 37 38 38 39 39 40 41 42 43 43 44 44 45 46 46 46 46 46 48 49 49 50 51 52 53 54 55 57 58 59 61 63 64 65 66 66 67 67 68 69 69 69 69
54 54 56 57 59 60 59 58 57 56 55 53 51 51 52 53 53 52 51 49 46 42 40 39 38 37 35 34 35 36 37 38 39 40 40 39 38 38 38 37 38 38 38 38 39 39 40 41 42 43 43 44 44 45 46 46 46 46 46 47 48 49 50 51 52 53 54 55 56 58 59 60 62 64 65 67 67 67 67 68 68 69 69 69 69
53 54 56 58 60 61 59 57 56 56 54 52 51 51 53 53 53 52 52 50 46 43 41 40 39 38 36 36 37 38 39 40 41 42 42 41 41 40 40 40 40 40 40 40 41 41 42 43 43 44 44 45 46 46 47 47 47 47 48 49 49 50 51 52 53 54 55 56 57 58 60 61 63 65 66 67 67 66 66 67 67 68 67 67 67
52 54 56 59 60 60 58 56 56 55 53 51 51 52 53 53 53 53 53 50 46 44 43 41 40 39 38 37 39 41 42 43 44 45 45 44 44 43 42 42 42 42 42 42 42 43 44 44 45 45 46 47 47 47 48 49 48 49 49 49 50 50 52 53 54 54 55 56 58 59 60 62 63 65 66 66 66 65 65 66 66 66 66 66 66
51 55 58 59 59 58 56 54 54 53 52 52 52 52 53 53 54 55 53 50 47 45 44 42 41 41 40 40 41 42 44 46 46 47 47 47 47 46 45 45 44 44 44 44 44 45 45 46 46 47 47 47 48 48 49 49 49 49 50 50 50 51 52 53 54 55 56 57 58 60 61 62 63 64 65 65 64 64 64 65 65 65 65 65 66
50 55 58 58 57 56 54 52 52 52 52 52 52 52 53 54 55 55 52 49 48 46 44 43 43 43 43 43 43 44 46 47 48 48 48 49 49 49 48 47 47 46 46 46 46 46 47 47 47 48 48 49 49 50 50 51 51 51 51 51 52 52 53 54 55 55 57 58 59 60 61 62 63 64 64 64 63 64 64 65 65 64 64 65 65
49 53 56 55 54 53 52 51 51 52 52 52 52 53 54 54 54 54 52 50 49 47 45 44 44 45 45 45 45 46 47 48 49 50 50 50 49 49 49 49 48 48 48 48 48 48 48 48 49 49 50 50 51 51 52 52 52 53 53 53 54 54 55 55 56 56 57 58 59 60 61 62 63 63 63 63 63 63 64 64 64 63 63 64 64
48 50 52 52 52 51 51 51 51 51 51 51 52 52 53 53 53 54 53 52 50 48 47 46 46 46 47 47 47 47 48 49 50 50 50 50 50 50 50 50 50 49 49 49 49 49 49 49 50 51 51 52 52 52 53 53 54 54 54 55 55 56 56 57 57 58 59 59 60 60 61 62 62 62 63 63 63 63 63 62 62 62 62 63 63
48 48 49 50 50 51 51 51 51 51 51 51 52 52 52 52 53 54 54 53 51 50 49 48 47 47 48 48 49 49 50 50 51 51 52 52 52 52 52 51 51 50 50 50 50 50 50 50 51 52 52 53 53 53 54 54 55 56 56 56 57 57 57 58 59 59 60 60 60 61 61 61 62 63 63 63 62 61 61 60 60 60 61 61 62
48 48 48 48 49 50 51 51 51 52 52 52 52 53 53 53 52 53 54 54 53 53 52 50 49 48 49 50 51 51 52 52 52 53 53 53 53 53 52 52 51 51 51 51 51 51 51 52 52 53 53 54 54 55 55 56 56 57 58 58 58 58 59 59 60 61 61 61 61 61 62 62 62 62 62 61 60 59 59 58 59 59 59 61 62
49 49 49 50 50 51 51 52 53 53 54 54 54 54 54 53 54 54 55 55 54 54 53 51 50 50 50 51 52 52 53 53 53 54 54 54 54 54 53 52 52 51 52 52 52 52 52 52 53 53 54 55 55 56 57 57 58 58 59 59 59 60 60 61 61 62 62 62 62 62 62 62 62 62 61 60 60 59 58 57 58 59 60 62 65
51 51 51 52 53 54 54 55 55 56 56 56 55 55 54 55 55 55 55 55 55 54 53 52 51 51 51 52 52 53 53 53 54 54 54 54 54 54 53 53 53 53 53 53 53 53 53 53 54 54 55 56 56 57 58 58 59 59 59 60 60 61 61 61 62 62 63 63 63 63 63 63 63 62 61 60 59 58 57 58 59 61 64 66 68
54 54 54 55 56 56 57 57 57 57 57 56 56 56 56 56 56 56 56 56 55 54 53 52 52 52 52 53 53 53 53 54 55 55 55 55 54 54 53 54 54 54 55 54 55 55 55 55 55 56 57 57 58 58 59 59 60 60 60 60 61 61 62 62 62 63 63 63 64 64 64 64 63 61 60 60 59 59 59 60 62 65 67 69 71
57 57 57 58 58 58 59 59 59 58 58 58 58 58 58 58 57 57 57 56 54 54 53 53 53 53 53 53 53 53 53 54 55 55 56 56 55 54 54 54 55 55 56 56 57 57 57 57 57 58 58 59 59 60 60 60 60 60 61 61 62 62 62 63 63 63 64 64 65 65 65 64 62 61 60 60 60 61 62 63 66 68 70 72 73
59 60 60 60 60 60 60 60 60 60 60 60 59 59 59 58 58 58 57 56 55 55 55 54 54 53 53 53 53 54 54 55 55 56 56 56 56 56 56 56 56 56 57 57 58 58 58 59 59 59 59 60 60 61 61 61 61 61 62 62 62 62 63 64 64 64 65 66 66 66 65 64 62 61 61 61 62 63 65 67 69 71 73 74 76
61 61 62 62 62 62 62 61 61 61 60 61 60 60 61 60 60 59 58 57 56 56 55 54 54 54 54 54 54 54 55 55 56 56 57 57 57 57 57 57 57 57 58 58 59 59 60 60 60 60 61 61 61 61 61 61 61 61 62 62 62 63 64 64 65 66 67 68 68 67 66 64 63 62 63 64 65 66 68 70 72 74 76 78 79
64 63 63 62 62 62 62 62 62 61 61 61 62 62 62 61 60 59 58 57 57 57 56 55 55 55 55 55 55 55 56 56 57 57 58 58 58 58 58 58 58 58 59 59 60 60 61 61 61 62 62 62 62 62 62 61 61 61 62 62 63 63 64 64 66 67 68 69 68 67 66 64 64 64 65 67 68 70 72 74 76 78 79 81 82
66 66 65 64 63 63 62 62 62 62 62 62 62 61 61 60 60 59 58 58 58 57 57 56 56 56 56 56 56 57 57 58 58 58 58 58 58 58 59 59 59 59 60 60 61 62 62 62 62 62 63 63 62 62 62 61 61 61 61 61 62 62 63 65 66 67 68 68 67 66 66 65 66 67 68 70 71 73 75 77 79 81 82 83 84
69 68 67 66 65 64 63 62 62 62 62 62 61 60 60 60 59 58 58 58 58 58 58 57 57 57 57 57 58 58 58 59 59 59 59 59 59 59 60 60 60 60 61 61 62 63 63 63 63 63 63 63 62 62 61 61 61 61 61 61 61 63 64 65 66 67 67 67 66 66 66 67 68 70 72 73 74 76 78 80 82 83 84 85 87
70 70 69 69 68 66 65 64 64 64 63 62 61 60 60 59 59 59 59 60 59 59 59 58 58 59 59 59 59 59 60 60 60 60 60 60 60 61 61 61 61 62 62 63 64 64 64 64 64 64 64 63 62 61 61 60 60 61 61 62 63 64 65 66 66 66 67 67 67 68 68 70 71 73 75 76 78 79 81 82 84 85 86 88 89
72 72 71 70 69 68 67 66 65 64 63 62 61 61 61 60 60 60 60 60 60 60 60 60 60 60 60 60 61 61 61 61 61 61 61 61 61 62 62 63 63 64 64 65 65 65 66 66 65 65 65 63 62 62 61 61 61 62 63 64 65 66 67 67 68 68 69 69 70 71 72 73 75 76 78 79 80 82 83 85 86 88 89 90 92
74 74 72 71 70 69 68 66 65 63 62 61 61 61 61 60 60 61 61 60 60 61 61 61 61 61 61 62 62 62 62 62 62 62 62 62 63 63 64 64 65 66 66 66 66 67 67 67 66 66 65 64 64 64 63 63 64 65 65 66 67 68 69 70 70 71 71 72 73 74 75 77 78 80 81 82 83 85 86 87 89 90 92 93 94
78 77 76 75 73 72 70 69 67 65 63 61 61 60 61 61 62 62 62 62 62 62 62 62 62 62 63 63 63 63 64 64 63 63 63 64 64 65 65 66 67 67 68 68 68 68 68 68 67 67 66 66 66 66 66 66 67 68 68 70 71 72 72 73 73 73 74 75 76 77 78 80 81 83 84 85 86 87 88 90 92 93 95 96 96
80 79 79 77 76 74 72 71 68 66 64 63 63 63 63 63 63 63 63 62 62 63 63 63 64 64 64 64 65 65 65 65 64 64 65 65 66 66 67 67 68 69 69 69 69 69 69 69 68 68 68 68 68 68 68 69 70 71 72 73 74 75 76 76 76 77 77 78 79 80 81 82 84 85 87 88 89 90 91 93 95 96 97 97 97
81 80 80 79 76 74 72 71 70 68 67 66 66 66 65 64 63 63 63 63 63 64 64 65 65 65 65 66 66 66 66 66 66 66 66 66 67 68 68 69 69 70 70 70 70 70 70 69 69 69 69 69 69 69 70 71 72 73 75 76 77 78 78 78 79 80 80 81 82 83 84 85 86 88 89 90 91 93 95 97 98 98 98 97 95
83 82 82 81 79 76 74 72 70 69 68 68 67 66 65 64 64 64 64 65 65 66 66 66 66 67 67 67 67 67 67 67 67 67 68 68 68 69 69 70 70 70 70 70 70 70 70 70 70 71 71 71 71 71 72 74 75 76 77 78 79 80 80 81 82 82 83 84 85 86 87 88 88 89 90 92 94 96 98 99 99 99 97 95 92
84 84 83 82 81 79 77 74 71 69 68 68 67 66 66 65 65 66 66 66 67 67 67 68 68 68 68 68 68 68 69 69 69 69 69 70 70 70 70 71 71 71 71 71 71 71 71 71 72 72 72 73 73 74 75 77 78 79 80 81 81 82 83 83 84 85 86 87 88 88 89 89 90 91 93 95 98 99 100 100 99 97 94 91 88
82 82 82 82 81 80 77 74 71 69 68 68 68 68 68 68 68 68 68 68 69 69 69 69 69 69 69 70 70 70 70 70 70 71 71 71 71 71 71 71 71 71 71 71 71 71 72 72 73 73 74 74 75 77 78 79 80 81 82 83 83 84 85 86 86 87 88 89 90 90 90 91 92 94 97 99 100 101 100 98 96 93 90 87 83
80 81 82 82 82 81 79 75 72 69 69 69 70 70 70 70 70 70 70 70 70 70 70 70 70 71 71 71 72 72 72 72 72 72 72 72 72 72 72 72 72 72 72 72 72 72 73 74 75 75 75 76 78 79 80 81 82 83 84 84 85 86 87 88 89 90 91 91 91 91 92 93 96 98 100 101 101 100 97 95 92 89 85 82 77
81 82 82 82 81 80 79 77 75 73 72 71 71 71 71 71 71 71 71 71 71 71 71 71 72 72 73 73 73 73 73 73 72 72 72 72 73 73 73 72 72 72 72 73 73 74 75 76 76 77 78 79 80 80 81 82 84 85 85 86 87 88 89 90 91 92 92 92 93 94 95 97 99 101 101 100 99 96 94 91 87 84 80 75 71
79 80 81 82 81 80 80 79 78 77 75 73 71 71 72 72 72 72 72 72 72 72 72 73 73 74 74 74 74 73 73 73 72 72 73 74 74 74 74 73 73 73 74 75 76 76 77 78 78 79 81 81 82 82 82 84 85 86 87 88 89 91 92 92 93 93 93 94 95 97 99 101 101 100 99 97 95 92 89 85 81 77 72 68 63
Wind_Direction
267 268 269 271 274 275 276 279 281 283 283 284 284 282 280 279 279 278 278 279 279 280 281 282 283 284 286 288 290 292 293 294 295 296 297 298 299 299 299 298 298 297 296 294 294 294 294 296 297 297 297 298 298 295 291 291 294 295 295 296 297 298 299 300 301 302 302 301 299 298 298 298 299 300 301 302 303 305 307 307 308 308 310 310 310
266 267 269 271 272 274 276 279 280 281 282 282 282 280 278 277 277 277 278 278 278 279 280 281 283 284 286 288 290 291 292 294 295 296 297 297 297 297 297 296 295 295 294 295 296 296 298 299 299 299 298 299 300 295 290 292 293 293 294 296 297 297 299 301 302 303 304 303 301 300 299 300 301 302 302 303 305 307 307 308 308 308 309 310 310
264 265 267 269 270 273 276 277 278 280 281 281 280 278 276 275 275 275 276 276 277 279 280 281 282 284 285 287 289 290 292 293 294 295 295 295 295 295 295 295 295 295 296 296 297 298 299 299 299 299 299 299 297 290 288 291 291 291 294 295 295 296 299 301 303 305 306 306 304 303 303 303 304 304 304 305 306 307 308 308 308 309 309 309 309
263 265 266 268 270 273 275 277 278 280 280 280 279 278 276 275 274 275 275 276 277 278 280 281 283 285 286 288 290 291 292 293 294 294 294 295 295 296 297 297 297 298 297 298 298 298 299 299 298 298 297 296 294 289 287 288 287 288 293 294 294 298 302 304 306 308 309 309 308 308 308 308 307 306 306 306 306 307 308 307 308 308 308 308 308
264 265 267 269 271 274 276 277 279 280 280 280 279 278 277 275 274 274 274 275 276 278 279 282 284 286 288 290 291 292 293 294 294 294 295 296 297 298 298 299 299 299 299 300 300 300 299 299 298 298 299 299 298 293 289 287 286 291 298 298 296 300 306 308 310 311 311 311 311 311 311 310 309 308 306 305 306 307 307 307 307 306 306 307 306
263 265 267 269 272 274 276 277 278 278 279 279 278 278 277 275 274 273 273 274 276 278 280 283 285 288 290 292 294 295 295 296 296 296 297 297 297 298 298 299 299 300 300 300 300 299 299 300 300 301 302 302 299 293 289 291 295 299 302 301 299 304 311 312 312 312 312 313 313 312 311 309 308 306 304 304 305 305 305 305 304 304 305 306 304
262 263 265 268 270 272 273 274 275 276 276 276 276 276 275 273 272 272 273 274 276 279 282 284 287 291 294 296 298 299 299 299 298 298 298 297 297 298 298 298 298 298 298 298 299 300 300 301 302 303 304 302 297 291 287 291 296 299 299 299 302 309 312 312 312 312 312 312 311 309 307 305 303 301 301 303 303 303 303 303 302 304 306 305 303
261 262 264 267 268 269 270 271 272 272 273 274 274 274 272 271 271 271 273 275 277 280 282 286 290 294 298 300 302 302 302 300 300 299 299 298 298 298 298 297 297 296 297 298 300 301 302 304 305 304 304 301 295 289 286 289 292 293 293 294 301 308 310 309 310 310 309 308 306 304 302 300 299 299 300 301 302 302 301 301 302 305 305 303 302
260 262 264 265 266 266 267 268 269 270 271 272 272 271 270 269 270 271 273 275 277 279 283 288 293 298 302 304 304 303 302 302 302 302 301 301 300 299 298 297 297 297 298 300 302 303 305 306 306 305 302 297 289 285 287 290 290 288 288 292 299 304 306 306 307 306 305 304 302 301 299 297 296 297 299 300 300 299 299 299 301 302 301 301 303
260 262 263 264 264 265 266 267 269 269 269 270 270 269 268 268 269 271 273 274 275 278 285 291 296 301 304 304 303 302 303 304 304 303 303 302 302 301 300 299 299 299 301 303 304 305 306 307 305 304 300 293 286 285 288 291 290 285 287 295 300 303 304 304 305 304 303 302 300 298 296 295 295 297 298 298 296 296 296 298 300 300 301 302 303
261 261 262 263 264 265 266 267 268 268 268 269 269 268 267 267 268 270 271 271 272 278 286 292 298 302 302 302 303 304 305 305 304 304 303 303 304 304 303 302 302 303 303 305 305 306 306 306 304 302 299 294 291 289 289 290 288 286 293 301 303 304 304 304 305 304 303 302 300 298 297 297 298 298 297 296 295 296 299 300 301 301 302 303 304
261 261 262 262 263 264 265 266 267 266 267 268 267 266 265 266 267 268 268 268 271 278 285 292 297 300 301 302 303 304 305 305 305 305 304 304 305 305 305 305 305 306 306 306 306 306 306 305 304 302 298 295 295 294 293 293 290 292 299 302 303 303 304 305 306 306 304 303 302 301 301 301 301 300 299 298 299 301 302 302 302 302 303 304 306
261 261 261 262 262 263 264 265 265 265 266 266 265 263 263 265 266 265 265 266 270 277 283 290 295 299 300 302 303 305 307 307 307 306 305 306 306 306 306 307 307 308 308 307 307 307 306 305 305 302 298 296 296 297 297 296 294 296 299 301 302 305 306 307 308 307 306 306 306 306 306 305 304 303 303 303 304 304 304 304 304 305 306 307 309
261 262 262 262 262 263 264 264 264 264 265 265 263 262 263 264 264 264 263 265 269 275 281 287 293 297 299 301 304 307 309 309 309 308 306 306 306 306 307 307 308 308 307 307 308 308 307 307 306 305 302 301 301 300 299 298 297 298 301 303 306 308 308 309 308 308 308 309 309 309 307 307 306 306 306 306 306 306 307 307 308 309 309 311 312
260 261 261 261 262 262 263 263 263 263 264 264 262 262 263 264 263 262 262 264 269 274 279 286 292 296 298 302 306 309 310 310 309 308 306 306 305 306 306 307 307 307 307 308 308 308 308 308 308 307 307 307 305 304 303 302 303 304 305 307 308 308 308 308 308 307 308 309 309 308 307 307 308 308 309 309 309 310 311 311 311 311 312 313 313
259 259 259 260 261 261 261 261 261 261 262 261 261 261 262 262 262 261 261 263 268 273 278 285 291 294 299 305 309 311 311 311 309 307 306 305 305 305 306 307 307 308 308 308 308 308 308 308 307 307 307 307 306 306 306 306 306 306 307 308 308 308 308 307 306 307 308 308 308 308 308 309 310 310 311 312 312 312 312 312 312 312 312 312 312
257 257 258 259 260 260 260 259 259 259 259 259 259 260 261 261 259 259 260 263 268 273 278 284 289 294 300 307 311 313 312 311 308 306 305 304 304 305 306 306 307 307 306 306 306 306 306 306 306 306 305 306 306 306 306 305 306 307 308 308 309 308 307 306 307 308 309 309 309 309 310 310 311 312 312 312 312 312 312 313 312 312 312 312 312
255 255 256 257 258 257 257 256 256 257 257 257 258 259 260 259 258 258 259 263 268 272 277 283 288 294 301 305 309 312 311 309 307 305 303 303 303 303 304 305 305 305 304 304 304 304 304 304 304 303 303 303 303 304 305 305 307 309 310 310 310 309 308 308 309 310 310 310 310 310 310 311 311 312 311 311 311 312 312 312 312 312 312 311 312
254 254 255 256 255 255 254 254 255 256 257 257 258 259 259 258 257 257 259 263 268 272 276 282 287 293 299 301 303 307 308 307 305 302 300 300 300 301 302 302 302 302 303 303 303 303 303 303 303 303 303 303 304 306 307 308 309 310 310 311 310 309 309 309 309 310 309 309 309 309 310 310 311 311 310 311 311 311 312 312 312 311 311 311 312
253 253 254 254 254 253 253 253 254 256 257 257 258 259 258 258 257 258 260 264 268 271 275 281 285 290 296 298 298 300 301 301 300 297 296 296 297 298 299 299 299 300 301 303 303 303 303 303 302 302 303 304 306 307 307 307 307 308 309 309 308 307 307 308 308 308 308 308 309 309 310 310 310 310 310 310 310 311 312 312 311 311 312 312 312
252 253 253 253 254 253 252 253 254 255 256 257 258 258 258 258 257 258 260 264 267 271 274 278 282 287 293 295 294 294 294 293 293 293 292 293 294 294 295 296 297 298 299 300 300 300 300 299 299 298 299 301 302 303 302 303 305 306 306 306 306 306 307 308 308 308 309 309 310 310 310 310 310 310 310 310 310 311 311 311 311 312 312 311 311
252 252 252 252 253 252 252 253 255 256 256 257 257 257 257 258 258 259 261 263 267 270 273 276 279 283 289 291 290 290 290 289 289 290 290 290 291 292 293 294 295 296 296 295 296 296 296 295 294 295 296 298 300 300 301 303 304 305 306 306 307 308 308 308 308 309 309 310 310 310 310 310 310 309 309 309 310 310 310 310 310 311 311 310 310
252 251 251 251 252 252 252 254 255 256 256 257 257 257 257 258 259 260 261 263 266 269 271 274 278 281 285 287 286 285 286 286 286 286 287 288 288 289 291 292 293 293 292 293 294 294 294 295 295 297 299 299 301 302 303 304 305 306 308 308 308 308 308 308 308 308 308 309 309 309 309 309 309 309 308 308 309 309 309 309 309 310 309 309 309
252 251 250 250 251 252 253 254 255 256 256 257 257 257 257 258 259 260 261 263 266 269 270 273 276 279 282 283 283 282 282 283 283 284 285 287 287 287 288 288 289 290 291 292 293 294 295 296 297 298 299 299 301 302 303 304 305 306 307 306 306 306 306 306 306 307 307 308 308 308 308 308 307 307 307 307 308 308 309 309 308 308 308 308 309
252 252 251 251 252 253 254 254 255 256 256 256 256 257 258 259 260 261 262 264 266 268 270 272 275 278 279 280 280 281 280 280 281 282 283 285 285 286 287 287 289 290 292 293 293 294 295 296 296 297 298 299 300 301 302 303 304 304 303 303 303 303 303 304 305 306 306 306 306 306 306 306 306 306 306 307 308 308 308 308 307 308 308 309 309
253 253 253 254 255 255 255 254 254 255 255 256 257 259 259 260 260 262 264 265 267 269 271 273 274 276 278 278 279 280 280 279 279 280 282 283 284 286 288 289 290 291 292 292 293 294 295 295 296 297 298 299 300 301 301 302 301 301 301 301 301 301 302 303 304 304 304 304 304 304 304 304 305 305 306 307 307 307 307 306 307 308 309 309 309
254 254 254 254 254 254 253 252 253 254 255 257 258 259 260 260 262 264 266 267 268 270 272 273 274 276 278 279 280 280 280 279 279 279 281 282 284 287 288 289 290 291 292 293 294 294 295 295 296 297 298 299 299 300 300 300 300 300 300 301 301 301 302 302 303 303 303 302 302 303 303 303 304 305 305 306 306 306 306 307 308 309 308 308 308
254 254 254 253 253 252 252 252 253 254 256 257 258 259 261 262 263 265 267 268 269 271 273 274 274 276 278 279 280 281 281 281 281 280 280 282 283 285 286 288 289 290 291 292 293 294 295 296 296 297 297 297 298 298 299 299 299 300 300 301 301 301 301 302 302 301 301 301 301 302 302 303 303 304 304 305 305 306 307 308 308 308 307 308 309
253 254 254 253 252 252 252 253 254 255 256 257 258 260 262 263 263 265 267 269 270 271 273 274 275 277 278 279 280 281 282 282 282 281 281 282 283 284 285 287 288 288 290 291 292 293 294 294 295 295 295 296 297 297 298 299 299 300 300 300 301 301 301 301 300 300 300 300 301 302 302 302 303 304 305 306 307 307 307 307 307 307 308 309 309
253 254 254 253 253 253 254 255 256 257 258 258 259 260 262 262 263 265 266 268 270 271 273 274 276 277 278 278 279 281 281 282 282 282 283 283 284 285 285 286 287 288 290 291 292 292 292 292 293 294 295 296 296 297 298 299 299 299 300 300 300 300 300 300 300 300 300 300 301 301 302 303 304 305 306 307 307 307 307 307 308 309 309 309 309
253 253 253 254 254 255 256 256 257 258 258 258 259 260 262 263 264 265 266 267 269 270 272 274 275 276 278 278 279 280 281 282 283 283 284 284 285 285 286 287 288 289 290 290 290 290 290 291 292 293 294 295 296 296 297 298 299 299 299 299 299 299 300 300 300 300 300 301 301 302 303 305 305 306 307 307 308 308 308 309 309 309 309 309 310
252 252 252 253 254 255 255 256 257 257 258 258 259 261 262 263 263 264 265 267 268 269 271 273 275 276 278 279 280 281 282 282 282 282 283 284 285 286 287 288 288 288 288 288 289 289 289 290 291 292 293 294 295 296 296 297 297 298 298 298 299 299 300 300 300 300 301 302 303 304 306 306 307 307 308 308 308 308 309 309 309 309 310 310 310
250 250 251 252 253 254 255 256 256 257 257 257 258 259 260 261 262 263 265 267 268 270 272 273 275 277 278 279 280 281 281 281 281 282 282 283 283 284 285 285 286 286 286 287 288 289 289 290 291 292 293 293 294 295 295 296 296 297 297 298 299 300 300 300 301 301 302 304 305 306 307 307 307 308 308 308 308 309 309 310 310 310 310 311 310
251 251 251 251 252 253 254 255 255 256 256 257 258 259 260 261 263 264 266 267 269 271 272 274 275 276 277 278 279 280 281 281 281 282 282 282 282 282 283 283 284 285 286 287 288 289 290 291 291 292 292 293 293 294 294 295 296 297 298 299 300 301 301 302 302 303 304 306 307 307 307 307 307 308 308 308 309 310 310 311 311 311 311 311 311
252 252 253 253 254 254 254 255 255 256 257 258 259 260 261 262 263 264 266 267 269 271 272 274 275 276 277 278 278 279 280 280 281 281 281 281 281 281 282 283 284 285 286 287 288 289 289 290 290 291 291 292 292 293 294 296 297 298 299 300 301 302 302 303 304 305 307 308 308 307 307 307 307 308 308 309 310 311 311 312 311 311 311 311 311
250 251 252 252 253 253 254 254 255 256 257 258 259 260 261 262 263 264 266 268 269 271 273 274 275 275 276 277 277 278 279 279 279 279 279 280 280 281 282 283 284 285 286 286 287 288 288 288 289 290 290 291 292 294 295 296 297 298 299 300 302 302 303 305 306 307 308 308 308 307 307 307 307 308 308 309 311 312 312 312 312 312 312 312 311
250 250 250 251 251 252 253 253 254 255 257 258 259 260 260 261 263 264 266 268 269 271 272 273 273 274 275 275 276 276 277 277 277 278 278 279 280 281 282 283 284 285 285 285 286 286 287 287 288 289 290 291 293 294 295 296 297 298 300 301 303 304 306 307 308 308 308 307 307 306 306 307 308 308 309 311 312 313 313 313 313 312 312 312 311
250 250 250 250 250 251 252 253 254 255 256 257 258 259 260 262 263 265 266 267 269 270 271 271 272 272 273 274 274 274 275 275 276 277 278 279 280 281 282 282 283 283 284 285 285 285 286 287 288 289 290 292 293 294 295 296 297 299 301 303 305 307 308 309 308 307 307 307 306 307 307 308 309 309 310 311 312 312 313 313 312 312 312 312 311
249 249 250 250 251 252 253 254 255 256 257 258 259 260 261 262 263 265 266 267 268 268 269 269 270 270 271 272 272 273 274 274 275 276 277 278 279 280 281 282 282 283 283 284 284 285 286 287 288 289 290 292 293 294 295 296 298 300 302 304 306 308 308 308 307 307 307 307 307 308 309 309 310 310 311 312 312 312 312 312 312 312 312 311 311
248 249 249 250 251 252 253 254 255 256 257 258 259 260 261 261 262 263 264 265 266 267 267 268 269 269 270 271 271 272 273 273 274 275 277 278 279 280 280 281 282 282 283 284 285 286 287 288 289 290 291 292 292 293 294 296 299 301 303 306 307 308 307 307 307 308 308 309 309 310 310 311 311 311 311 312 311 312 312 312 312 312 311 311 310
248 248 249 250 250 251 253 254 255 256 257 257 258 258 259 259 260 261 262 263 264 265 266 267 268 268 269 269 270 271 271 272 273 275 276 278 279 279 280 281 281 282 283 284 285 286 287 288 289 290 291 292 292 293 294 296 299 302 304 305 306 306 306 307 308 309 310 310 310 310 310 311 311 311 311 311 311 312 312 312 311 311 310 310 310
249 249 250 251 251 252 253 254 254 255 255 255 255 256 256 257 258 259 261 262 262 263 264 265 266 267 267 268 269 269 270 271 273 274 276 277 278 279 279 280 281 282 283 284 285 286 288 289 290 291 292 293 293 293 294 297 299 301 303 304 304 305 307 308 310 310 311 311 310 310 310 310 310 310 311 311 311 311 311 311 311 310 310 309 310
250 250 251 251 252 252 253 253 253 252 252 252 253 253 254 255 257 258 259 260 261 262 263 264 265 266 266 267 268 269 270 271 273 274 275 276 277 278 279 280 281 282 283 285 286 287 289 290 291 292 293 294 294 295 295 297 299 300 301 303 304 306 308 309 311 311 311 311 310 310 310 309 309 310 310 311 311 311 311 310 310 310 310 310 310
250 250 250 251 251 251 251 252 252 251 251 251 252 253 254 255 256 257 258 259 260 261 262 263 264 265 265 266 268 269 270 271 273 274 275 276 277 278 279 280 281 283 284 285 287 288 290 291 292 293 294 294 295 295 296 297 298 300 301 303 305 307 309 310 311 311 311 311 310 310 309 309 309 309 310 310 310 310 310 310 309 309 310 310 309
249 249 249 250 249 250 250 251 251 252 252 252 252 252 253 254 255 256 257 258 259 260 261 262 263 264 265 266 268 269 270 271 272 273 275 276 277 278 279 281 282 283 284 286 288 289 291 292 293 293 294 294 295 295 296 297 299 301 302 304 306 308 309 310 310 310 310 310 309 309 308 308 308 309 309 309 309 309 309 309 309 309 309 309 309
249 249 249 249 250 250 251 251 251 252 252 252 252 252 253 254 255 256 257 258 259 260 261 262 263 264 265 266 268 269 270 271 272 274 275 276 278 279 280 281 283 284 285 287 288 290 291 292 293 294 294 294 295 295 297 298 301 302 304 305 307 308 309 309 309 309 309 309 308 308 308 308 308 308 308 308 308 308 308 309 309 309 309 309 308
248 249 249 250 251 251 251 251 251 252 252 252 253 253 253 254 255 256 257 258 259 260 261 262 263 264 266 267 268 269 271 272 273 274 276 277 278 280 281 282 284 285 286 287 288 290 291 292 293 293 294 294 295 297 298 300 302 303 304 305 306 307 307 307 308 308 308 307 307 307 307 307 307 307 307 307 308 308 308 308 309 309 309 308 308
251 252 253 253 254 253 253 253 252 252 254 255 255 255 254 254 255 255 256 258 259 260 261 263 264 265 266 268 269 270 272 273 274 275 276 277 279 280 282 283 284 285 286 287 288 289 291 292 292 293 294 295 297 298 300 301 302 303 304 304 305 305 306 306 307 307 307 307 306 306 306 306 306 306 307 307 307 308 308 308 308 308 308 308 307
253 254 255 255 255 255 254 254 253 254 255 256 256 255 255 255 255 256 257 258 259 261 262 263 265 266 267 268 270 271 272 273 274 276 277 278 280 281 282 284 285 285 285 286 287 289 290 291 292 293 295 297 298 298 299 299 300 301 302 302 303 304 305 305 306 306 306 306 306 306 306 306 306 306 306 307 307 308 308 308 308 308 308 308 307
252 253 254 255 255 255 255 255 255 256 256 256 256 256 257 257 257 257 258 260 261 262 263 265 266 267 268 269 270 272 273 274 275 277 278 279 280 282 283 283 284 284 284 285 286 288 290 291 293 294 296 296 296 296 297 297 299 300 300 301 302 303 304 305 305 305 305 305 305 305 305 305 306 306 306 307 307 308 308 308 309 309 309 308 307
250 251 253 254 255 256 257 257 258 258 257 256 255 256 257 258 258 259 260 261 262 263 264 266 267 268 269 270 271 273 274 275 277 277 278 280 281 282 282 282 282 283 283 284 286 288 290 292 293 294 294 294 294 294 295 296 297 298 299 301 302 303 303 304 304 304 304 304 304 305 305 305 305 306 306 307 308 308 308 309 309 309 309 308 307
Height
5813 5813 5813 5813 5813 5813 5812 5812 5812 5811 5810 5810 5809 5809 5808 5806 5805 5804 5802 5801 5800 5799 5798 5796 5795 5793 5792 5790 5789 5787 5785 5784 5781 5779 5778 5776 5774 5771 5769 5766 5763 5761 5759 5757 5755 5753 5751 5749 5747 5745 5742 5739 5735 5731 5728 5726 5723 5721 5719 5718 5716 5714 5712 5710 5707 5705 5703 5700 5696 5693 5690 5688 5685 5683 5681 5679 5677 5675 5673 5672 5670 5668 5666 5663 5660
5808 5808 5808 5808 5808 5808 5808 5808 5807 5806 5806 5805 5805 5804 5803 5802 5800 5799 5798 5797 5795 5794 5793 5792 5790 5789 5788 5786 5785 5783 5781 5779 5777 5775 5773 5771 5769 5766 5764 5761 5758 5756 5754 5752 5750 5748 5746 5744 5742 5739 5737 5733 5729 5725 5722 5720 5718 5716 5714 5713 5711 5709 5707 5704 5702 5699 5697 5694 5691 5688 5685 5683 5681 5678 5676 5674 5672 5671 5669 5667 5666 5664 5661 5659 5656
5803 5803 5803 5803 5803 5803 5803 5803 5802 5802 5801 5801 5800 5799 5798 5797 5796 5795 5794 5792 5791 5790 5788 5787 5786 5785 5783 5782 5780 5778 5776 5775 5772 5770 5768 5766 5764 5761 5759 5756 5754 5752 5750 5748 5746 5743 5741 5738 5736 5734 5731 5728 5726 5723 5718 5714 5712 5711 5710 5708 5706 5704 5702 5700 5697 5694 5692 5689 5686 5683 5681 5678 5676 5674 5672 5670 5668 5667 5665 5663 5662 5659 5657 5654 5651
5797 5797 5798 5798 5798 5798 5797 5797 5797 5797 5796 5795 5795 5794 5793 5792 5791 5790 5789 5787 5786 5785 5783 5782 5781 5780 5779 5777 5776 5774 5772 5770 5767 5765 5763 5760 5758 5756 5754 5751 5749 5747 5745 5742 5740 5738 5736 5734 5731 5728 5726 5723 5723 5719 5712 5708 5707 5707 5705 5702 5700 5698 5697 5694 5692 5690 5687 5685 5682 5680 5677 5675 5673 5671 5668 5666 5664 5663 5661 5659 5657 5655 5652 5649 5645
5791 5792 5792 5792 5792 5792 5792 5792 5791 5791 5791 5790 5789 5788 5787 5787 5785 5785 5784 5782 5781 5780 5779 5778 5777 5776 5774 5772 5771 5769 5767 5765 5762 5760 5758 5755 5753 5750 5748 5746 5744 5742 5739 5737 5734 5731 5729 5727 5725 5723 5721 5718 5715 5709 5703 5702 5702 5701 5699 5696 5695 5694 5692 5689 5687 5685 5683 5681 5678 5676 5673 5671 5669 5667 5664 5662 5660 5658 5656 5654 5652 5650 5647 5644 5640
5785 5786 5786 5786 5786 5786 5786 5786 5786 5786 5785 5785 5784 5783 5782 5781 5780 5779 5778 5777 5776 5775 5774 5773 5772 5771 5769 5767 5766 5764 5761 5760 5757 5755 5753 5750 5747 5745 5743 5741 5738 5736 5733 5731 5729 5726 5723 5721 5719 5717 5715 5713 5710 5704 5699 5697 5697 5695 5693 5691 5690 5689 5687 5684 5682 5680 5678 5676 5673 5671 5669 5667 5664 5662 5660 5658 5655 5653 5651 5649 5647 5645 5642 5639 5635
5779 5780 5780 5781 5781 5781 5781 5781 5780 5780 5780 5779 5779 5777 5777 5776 5774 5774 5773 5772 5771 5770 5770 5769 5767 5766 5765 5763 5761 5759 5757 5755 5752 5750 5747 5744 5742 5739 5737 5735 5732 5730 5727 5725 5723 5721 5718 5716 5714 5712 5710 5708 5705 5701 5697 5695 5694 5691 5688 5687 5686 5684 5682 5680 5678 5675 5673 5671 5668 5666 5664 5661 5659 5657 5655 5653 5651 5648 5647 5644 5642 5640 5638 5634 5630
5774 5774 5774 5775 5775 5775 5776 5775 5775 5775 5774 5774 5773 5772 5771 5770 5769 5769 5768 5767 5767 5766 5765 5764 5763 5761 5760 5758 5756 5754 5752 5750 5747 5745 5742 5739 5737 5734 5732 5729 5727 5724 5722 5720 5717 5715 5713 5711 5709 5706 5704 5700 5697 5695 5694 5693 5692 5689 5686 5684 5682 5680 5678 5676 5673 5671 5668 5666 5664 5661 5659 5657 5654 5652 5650 5648 5647 5645 5643 5640 5638 5636 5633 5629 5625
5768 5768 5769 5770 5770 5770 5770 5770 5769 5769 5768 5768 5767 5766 5765 5765 5764 5763 5762 5762 5762 5761 5760 5759 5758 5756 5754 5753 5751 5748 5746 5744 5741 5739 5736 5734 5731 5728 5726 5723 5721 5718 5716 5714 5712 5710 5708 5706 5703 5701 5698 5695 5693 5691 5690 5689 5687 5686 5683 5681 5679 5676 5674 5671 5669 5666 5664 5661 5659 5657 5655 5653 5650 5649 5647 5645 5643 5640 5638 5635 5633 5630 5627 5624 5620
5762 5762 5763 5763 5763 5763 5764 5763 5763 5763 5762 5761 5761 5760 5760 5759 5759 5758 5757 5757 5757 5756 5755 5754 5752 5751 5749 5747 5745 5743 5740 5738 5735 5733 5730 5728 5726 5723 5720 5718 5715 5713 5711 5709 5707 5704 5702 5700 5698 5695 5693 5692 5691 5688 5686 5683 5682 5680 5678 5676 5674 5672 5670 5667 5664 5662 5659 5657 5655 5653 5651 5649 5646 5644 5642 5640 5638 5635 5633 5630 5628 5625 5621 5617 5614
5755 5756 5756 5756 5757 5757 5757 5757 5757 5756 5756 5755 5754 5754 5754 5753 5753 5752 5751 5752 5751 5751 5750 5748 5747 5745 5743 5741 5739 5737 5735 5732 5730 5727 5725 5722 5720 5717 5715 5712 5710 5708 5706 5704 5702 5700 5697 5695 5692 5690 5688 5687 5685 5683 5681 5679 5677 5676 5674 5672 5670 5668 5665 5663 5660 5658 5655 5653 5651 5649 5647 5645 5643 5641 5638 5636 5633 5630 5628 5626 5622 5619 5615 5611 5608
5748 5748 5749 5749 5750 5750 5750 5750 5750 5750 5749 5749 5748 5748 5748 5747 5747 5746 5746 5746 5746 5745 5744 5742 5741 5739 5737 5735 5733 5731 5729 5726 5724 5722 5719 5717 5714 5712 5710 5707 5705 5703 5701 5699 5697 5695 5693 5690 5688 5686 5683 5681 5680 5679 5677 5674 5673 5671 5670 5668 5666 5664 5662 5659 5657 5654 5652 5650 5648 5646 5644 5642 5639 5637 5634 5631 5629 5626 5624 5621 5617 5613 5609 5605 5601
5740 5741 5742 5742 5743 5743 5743 5744 5743 5743 5743 5742 5742 5742 5742 5741 5741 5741 5741 5741 5740 5739 5738 5736 5735 5733 5732 5730 5728 5726 5724 5721 5718 5716 5713 5711 5709 5707 5705 5703 5701 5699 5697 5695 5693 5691 5689 5686 5684 5682 5679 5678 5676 5675 5672 5670 5669 5668 5667 5665 5663 5661 5659 5656 5654 5651 5649 5647 5645 5643 5640 5638 5635 5633 5630 5627 5624 5622 5619 5615 5611 5608 5604 5599 5595
5733 5734 5734 5735 5735 5736 5736 5737 5736 5736 5736 5735 5735 5735 5735 5735 5735 5735 5735 5735 5734 5733 5731 5730 5729 5727 5726 5725 5723 5721 5718 5716 5713 5711 5708 5706 5704 5702 5701 5698 5696 5694 5693 5691 5689 5687 5685 5683 5681 5678 5676 5674 5672 5671 5669 5668 5667 5665 5664 5662 5660 5657 5655 5653 5650 5647 5645 5643 5641 5639 5636 5634 5631 5628 5625 5622 5620 5617 5614 5610 5606 5602 5597 5593 5589
5726 5726 5727 5727 5728 5729 5730 5730 5729 5729 5728 5728 5729 5729 5729 5729 5729 5729 5729 5728 5728 5727 5726 5725 5724 5722 5721 5719 5717 5715 5712 5710 5708 5706 5704 5702 5700 5698 5696 5694 5692 5691 5689 5687 5685 5682 5680 5678 5676 5674 5672 5670 5669 5667 5666 5665 5663 5662 5660 5658 5656 5654 5651 5649 5645 5643 5641 5639 5637 5634 5631 5629 5626 5623 5620 5617 5614 5611 5608 5604 5599 5595 5591 5587 5583
5718 5718 5719 5720 5721 5722 5723 5722 5722 5721 5721 5722 5722 5722 5722 5723 5723 5723 5723 5722 5722 5721 5720 5719 5718 5716 5715 5713 5711 5708 5706 5704 5702 5701 5699 5697 5695 5693 5691 5690 5688 5687 5685 5683 5681 5678 5676 5674 5673 5671 5669 5667 5665 5664 5662 5661 5659 5657 5655 5653 5652 5650 5647 5644 5641 5639 5637 5634 5631 5628 5626 5623 5621 5618 5614 5611 5608 5605 5601 5597 5592 5589 5585 5581 5577
5710 5710 5711 5713 5714 5715 5716 5715 5714 5714 5714 5715 5715 5716 5716 5717 5717 5717 5716 5716 5716 5715 5714 5713 5712 5711 5709 5707 5705 5702 5700 5699 5698 5696 5694 5693 5691 5689 5687 5685 5684 5682 5681 5679 5677 5675 5673 5671 5669 5667 5665 5663 5661 5660 5658 5656 5655 5653 5651 5650 5648 5645 5643 5639 5636 5634 5632 5629 5626 5623 5620 5617 5614 5611 5608 5604 5601 5598 5594 5590 5586 5582 5578 5574 5570
5701 5702 5704 5706 5707 5708 5707 5707 5707 5706 5707 5708 5709 5710 5710 5710 5710 5710 5710 5710 5709 5709 5708 5707 5706 5705 5703 5701 5699 5697 5696 5694 5693 5691 5690 5688 5686 5684 5682 5681 5679 5677 5676 5674 5673 5671 5669 5667 5665 5663 5661 5659 5658 5656 5654 5652 5651 5649 5647 5645 5643 5640 5637 5634 5631 5629 5626 5623 5620 5617 5614 5611 5608 5605 5601 5597 5594 5591 5587 5583 5579 5575 5571 5566 5563
5692 5694 5697 5698 5699 5699 5699 5699 5699 5700 5700 5701 5702 5703 5703 5703 5703 5703 5703 5703 5703 5703 5702 5701 5700 5699 5697 5695 5694 5693 5691 5689 5688 5686 5685 5683 5681 5679 5678 5676 5674 5672 5671 5669 5668 5666 5664 5662 5660 5658 5656 5655 5653 5652 5650 5648 5646 5644 5642 5640 5637 5634 5631 5628 5626 5623 5620 5617 5615 5611 5608 5605 5602 5598 5595 5591 5587 5584 5580 5577 5573 5568 5564 5560 5556
5684 5687 5689 5689 5690 5691 5691 5691 5692 5693 5693 5694 5695 5696 5697 5697 5697 5697 5697 5697 5697 5696 5695 5695 5694 5692 5691 5689 5688 5687 5686 5685 5683 5682 5680 5678 5676 5674 5672 5671 5669 5667 5666 5664 5662 5661 5659 5657 5655 5653 5651 5649 5648 5647 5645 5642 5641 5639 5636 5634 5631 5628 5626 5623 5620 5617 5614 5611 5608 5605 5602 5599 5596 5592 5588 5584 5581 5577 5574 5571 5566 5561 5557 5553 5549
5678 5679 5680 5681 5681 5682 5683 5683 5685 5686 5686 5688 5689 5689 5690 5690 5690 5690 5690 5690 5690 5690 5689 5688 5687 5686 5684 5683 5682 5682 5681 5680 5678 5677 5675 5673 5671 5669 5667 5665 5663 5662 5661 5659 5657 5656 5654 5652 5650 5648 5646 5645 5644 5642 5640 5637 5635 5633 5631 5628 5625 5623 5620 5617 5614 5611 5608 5605 5602 5599 5596 5593 5589 5585 5581 5578 5574 5570 5566 5563 5559 5554 5550 5546 5542
5671 5671 5672 5673 5672 5673 5674 5676 5677 5679 5680 5681 5682 5683 5683 5683 5683 5684 5684 5684 5684 5683 5682 5682 5680 5679 5678 5677 5677 5676 5675 5674 5673 5672 5670 5668 5666 5664 5662 5660 5659 5657 5655 5654 5652 5651 5649 5647 5645 5644 5642 5640 5638 5636 5634 5632 5629 5627 5624 5621 5619 5616 5613 5610 5608 5605 5602 5599 5596 5593 5590 5586 5583 5579 5575 5571 5568 5565 5560 5556 5551 5547 5543 5539 5535
5662 5663 5664 5664 5664 5665 5667 5669 5670 5671 5673 5674 5675 5676 5676 5676 5677 5677 5677 5677 5677 5677 5676 5675 5674 5672 5671 5671 5670 5670 5669 5669 5667 5666 5664 5662 5660 5658 5657 5655 5653 5651 5649 5648 5646 5644 5643 5641 5639 5638 5636 5634 5631 5629 5627 5624 5622 5619 5617 5614 5612 5609 5606 5603 5601 5598 5595 5592 5589 5586 5583 5579 5576 5572 5569 5565 5562 5558 5554 5549 5545 5541 5537 5532 5528
5654 5656 5657 5656 5656 5657 5660 5662 5663 5664 5666 5667 5668 5668 5669 5670 5670 5670 5670 5670 5670 5670 5669 5668 5667 5666 5665 5664 5663 5663 5663 5662 5661 5659 5658 5656 5655 5653 5651 5649 5647 5645 5643 5642 5640 5638 5636 5635 5633 5631 5629 5626 5624 5622 5619 5617 5615 5612 5610 5607 5605 5602 5599 5596 5594 5591 5588 5585 5582 5579 5576 5572 5569 5565 5562 5559 5555 5551 5547 5542 5538 5534 5530 5526 5521
5647 5648 5648 5649 5650 5651 5653 5655 5656 5657 5659 5660 5661 5662 5662 5663 5663 5663 5663 5664 5663 5662 5661 5661 5660 5659 5658 5657 5656 5656 5656 5655 5654 5653 5651 5650 5648 5646 5644 5643 5641 5639 5638 5636 5634 5632 5631 5629 5627 5625 5622 5620 5618 5615 5613 5611 5608 5605 5603 5600 5598 5595 5592 5589 5586 5584 5581 5578 5575 5571 5568 5565 5561 5558 5555 5551 5548 5544 5539 5535 5531 5527 5523 5518 5514
5639 5640 5641 5643 5644 5645 5648 5649 5649 5651 5652 5652 5654 5655 5655 5656 5656 5656 5656 5657 5656 5655 5654 5653 5653 5652 5651 5650 5649 5649 5649 5648 5647 5645 5644 5642 5641 5640 5638 5637 5635 5634 5632 5630 5628 5627 5625 5622 5620 5618 5616 5614 5611 5609 5607 5604 5602 5599 5596 5594 5591 5588 5585 5582 5579 5577 5574 5570 5567 5564 5561 5558 5554 5551 5547 5544 5540 5536 5532 5528 5524 5520 5515 5511 5508
5632 5633 5634 5636 5638 5639 5641 5642 5642 5643 5645 5645 5647 5648 5648 5649 5649 5649 5650 5649 5649 5648 5647 5646 5645 5644 5643 5643 5642 5642 5641 5640 5639 5638 5637 5635 5634 5633 5631 5630 5629 5627 5625 5624 5622 5620 5618 5616 5614 5612 5610 5607 5605 5603 5600 5598 5595 5592 5590 5587 5584 5581 5578 5575 5572 5570 5566 5563 5560 5557 5554 5550 5547 5543 5540 5536 5533 5529 5525 5520 5516 5512 5508 5505 5502
5624 5626 5627 5629 5630 5632 5633 5634 5635 5636 5637 5639 5640 5640 5641 5642 5642 5642 5642 5642 5641 5640 5639 5638 5638 5637 5636 5636 5635 5635 5634 5633 5632 5631 5630 5628 5627 5626 5624 5623 5621 5620 5618 5616 5614 5612 5610 5609 5607 5605 5603 5601 5598 5596 5594 5591 5588 5585 5583 5580 5577 5574 5571 5569 5566 5563 5559 5556 5553 5550 5547 5543 5539 5536 5533 5529 5525 5521 5516 5512 5509 5506 5502 5499 5496
5617 5618 5620 5622 5623 5624 5625 5627 5628 5629 5630 5631 5632 5633 5634 5634 5635 5635 5634 5634 5633 5633 5632 5631 5630 5630 5630 5629 5628 5627 5627 5626 5625 5624 5622 5621 5620 5619 5618 5616 5614 5613 5611 5609 5607 5605 5603 5602 5600 5598 5596 5594 5592 5589 5587 5585 5582 5578 5576 5573 5570 5567 5564 5561 5558 5555 5552 5549 5547 5543 5539 5536 5532 5528 5525 5521 5517 5513 5509 5505 5502 5499 5496 5493 5489
5610 5611 5613 5615 5616 5617 5618 5619 5620 5621 5623 5624 5624 5625 5626 5626 5627 5627 5626 5626 5625 5625 5624 5624 5623 5622 5622 5621 5621 5620 5619 5619 5618 5617 5615 5614 5613 5612 5611 5609 5607 5606 5604 5602 5600 5598 5596 5594 5593 5591 5589 5587 5584 5582 5580 5578 5575 5572 5569 5566 5563 5560 5557 5554 5551 5548 5545 5543 5540 5536 5532 5529 5525 5521 5517 5513 5509 5506 5502 5498 5495 5492 5489 5485 5482
5602 5604 5606 5607 5608 5609 5610 5611 5612 5613 5614 5615 5616 5617 5618 5618 5618 5618 5618 5618 5617 5616 5616 5616 5615 5615 5614 5613 5613 5613 5612 5611 5611 5610 5608 5607 5606 5605 5603 5602 5600 5598 5596 5595 5593 5590 5589 5587 5585 5583 5581 5579 5577 5575 5572 5570 5568 5565 5562 5559 5555 5553 5550 5547 5544 5541 5538 5535 5532 5528 5525 5521 5517 5513 5509 5505 5501 5498 5494 5491 5488 5485 5481 5478 5475
5594 5596 5597 5598 5599 5601 5602 5603 5604 5605 5606 5607 5608 5609 5609 5609 5609 5609 5609 5609 5608 5608 5608 5607 5607 5607 5606 5606 5605 5605 5605 5604 5603 5602 5601 5600 5599 5597 5596 5594 5593 5591 5589 5587 5585 5583 5581 5579 5577 5575 5574 5571 5569 5567 5564 5562 5560 5558 5555 5552 5548 5545 5542 5539 5536 5533 5530 5527 5523 5520 5516 5512 5508 5505 5501 5497 5493 5490 5487 5484 5480 5477 5474 5471 5467
5585 5587 5588 5589 5591 5592 5593 5594 5595 5596 5598 5599 5599 5600 5600 5600 5600 5601 5600 5600 5600 5600 5599 5599 5599 5599 5598 5598 5598 5598 5597 5596 5595 5594 5594 5592 5591 5590 5588 5586 5585 5583 5581 5580 5578 5576 5574 5572 5570 5568 5566 5563 5561 5559 5557 5554 5552 5550 5548 5545 5541 5538 5535 5531 5529 5525 5522 5518 5515 5511 5507 5504 5500 5496 5493 5489 5486 5482 5480 5477 5473 5469 5466 5462 5459
5577 5578 5579 5580 5582 5583 5584 5586 5587 5588 5589 5590 5590 5591 5591 5591 5592 5592 5592 5592 5592 5592 5591 5591 5591 5591 5591 5590 5590 5590 5589 5588 5587 5586 5585 5584 5583 5582 5580 5579 5577 5575 5573 5572 5570 5568 5566 5564 5562 5560 5558 5556 5553 5551 5549 5547 5544 5542 5540 5537 5534 5531 5527 5523 5520 5517 5513 5510 5506 5503 5499 5495 5491 5488 5485 5481 5478 5475 5472 5469 5464 5460 5457 5454 5450
5568 5569 5571 5572 5573 5575 5576 5578 5579 5580 5581 5581 5582 5582 5583 5583 5584 5584 5584 5584 5584 5584 5584 5584 5583 5583 5583 5582 5582 5582 5581 5580 5579 5578 5577 5576 5575 5574 5572 5571 5569 5568 5566 5564 5562 5560 5558 5556 5554 5552 5550 5548 5546 5543 5541 5539 5536 5533 5531 5528 5526 5523 5520 5516 5512 5509 5505 5502 5498 5494 5491 5487 5483 5480 5476 5474 5471 5467 5464 5460 5456 5452 5448 5444 5440
5560 5561 5562 5564 5566 5567 5569 5570 5571 5572 5572 5573 5573 5574 5574 5575 5575 5575 5576 5576 5576 5576 5576 5576 5575 5575 5575 5574 5574 5573 5573 5572 5571 5570 5569 5568 5567 5565 5564 5563 5561 5560 5557 5555 5554 5552 5550 5548 5546 5544 5542 5540 5538 5536 5533 5531 5528 5525 5523 5520 5517 5514 5511 5508 5504 5501 5497 5494 5490 5486 5482 5479 5475 5471 5468 5466 5463 5459 5455 5451 5446 5442 5438 5434 5430
5551 5552 5554 5556 5557 5559 5560 5561 5562 5563 5564 5564 5564 5565 5565 5566 5567 5567 5567 5567 5567 5567 5567 5567 5567 5567 5566 5566 5565 5565 5564 5564 5562 5561 5560 5559 5558 5556 5555 5554 5553 5552 5549 5547 5546 5544 5542 5540 5538 5536 5534 5532 5530 5528 5525 5523 5520 5517 5515 5512 5509 5506 5502 5499 5496 5493 5489 5486 5482 5478 5474 5471 5467 5464 5460 5457 5454 5450 5445 5441 5437 5433 5429 5424 5419
5542 5543 5545 5546 5547 5549 5551 5552 5553 5554 5555 5555 5556 5556 5557 5558 5558 5559 5559 5558 5558 5558 5558 5558 5558 5557 5557 5557 5556 5556 5555 5555 5553 5552 5551 5550 5549 5548 5547 5546 5545 5543 5542 5540 5537 5535 5534 5532 5530 5528 5526 5523 5521 5519 5517 5514 5512 5509 5506 5503 5500 5497 5494 5491 5487 5484 5481 5478 5474 5470 5466 5463 5459 5456 5452 5449 5445 5440 5436 5432 5427 5423 5418 5413 5409
5533 5535 5536 5537 5538 5540 5542 5543 5544 5545 5546 5546 5547 5548 5549 5549 5550 5550 5550 5549 5549 5549 5549 5549 5549 5548 5548 5547 5547 5547 5546 5545 5544 5543 5542 5541 5540 5539 5538 5538 5537 5535 5534 5532 5529 5527 5525 5523 5522 5520 5517 5515 5513 5511 5508 5505 5503 5500 5498 5495 5491 5488 5485 5482 5479 5476 5473 5469 5465 5462 5458 5454 5451 5447 5444 5440 5436 5431 5427 5423 5418 5413 5408 5403 5398
5524 5525 5526 5527 5529 5531 5532 5534 5534 5535 5536 5537 5538 5539 5540 5540 5540 5540 5540 5540 5540 5540 5540 5540 5539 5539 5539 5538 5537 5537 5536 5535 5534 5534 5533 5532 5532 5530 5530 5529 5528 5526 5525 5523 5520 5518 5516 5514 5512 5511 5508 5506 5505 5502 5499 5497 5494 5492 5489 5486 5483 5480 5477 5474 5471 5467 5464 5460 5456 5453 5449 5445 5442 5438 5435 5431 5426 5422 5417 5413 5407 5402 5397 5392 5387
5515 5515 5517 5518 5519 5520 5522 5523 5525 5526 5527 5528 5528 5529 5530 5530 5530 5530 5530 5530 5531 5531 5530 5530 5530 5530 5529 5529 5528 5527 5527 5526 5525 5525 5524 5524 5523 5521 5520 5519 5518 5517 5516 5514 5512 5509 5507 5505 5503 5501 5499 5497 5495 5493 5490 5488 5485 5483 5480 5477 5475 5472 5468 5465 5461 5458 5454 5451 5447 5443 5440 5436 5433 5429 5425 5421 5416 5412 5407 5402 5397 5392 5387 5382 5376
5505 5506 5508 5509 5510 5511 5512 5513 5515 5516 5517 5518 5519 5519 5519 5519 5520 5520 5521 5521 5521 5521 5521 5521 5521 5520 5520 5519 5519 5518 5518 5517 5516 5516 5515 5514 5513 5512 5511 5510 5509 5508 5506 5504 5503 5500 5498 5496 5494 5492 5490 5488 5486 5483 5481 5479 5476 5474 5471 5469 5466 5463 5459 5455 5451 5448 5444 5441 5437 5434 5430 5427 5423 5419 5415 5411 5406 5401 5397 5392 5387 5382 5377 5371 5365
5495 5496 5498 5499 5500 5501 5502 5503 5505 5506 5507 5508 5509 5509 5509 5510 5510 5510 5511 5511 5511 5511 5512 5511 5511 5511 5510 5510 5509 5509 5509 5508 5508 5507 5506 5505 5504 5503 5502 5500 5499 5498 5496 5495 5493 5491 5489 5487 5485 5482 5480 5478 5476 5474 5472 5469 5467 5464 5462 5459 5456 5453 5449 5445 5441 5438 5434 5431 5427 5424 5421 5417 5413 5409 5405 5400 5395 5391 5387 5382 5377 5371 5366 5360 5354
5485 5486 5487 5488 5490 5491 5492 5493 5494 5495 5497 5498 5499 5499 5500 5500 5500 5500 5501 5501 5502 5502 5502 5502 5501 5501 5501 5500 5500 5500 5499 5499 5498 5497 5496 5495 5495 5494 5492 5491 5490 5488 5487 5485 5483 5481 5479 5477 5475 5473 5471 5469 5466 5464 5462 5459 5457 5455 5452 5449 5445 5442 5438 5435 5431 5427 5424 5421 5417 5414 5410 5407 5403 5399 5394 5390 5385 5381 5376 5371 5366 5360 5354 5348 5342
5475 5476 5477 5478 5479 5481 5482 5483 5484 5484 5486 5487 5488 5489 5489 5489 5490 5491 5491 5491 5492 5492 5492 5492 5492 5491 5491 5491 5490 5490 5489 5489 5488 5487 5487 5486 5485 5484 5483 5481 5480 5479 5477 5475 5473 5471 5469 5467 5465 5463 5461 5459 5457 5454 5452 5449 5447 5444 5441 5438 5435 5431 5427 5424 5420 5417 5414 5410 5407 5404 5400 5396 5393 5388 5384 5379 5375 5370 5365 5360 5354 5349 5343 5337 5331
5464 5465 5466 5468 5469 5470 5472 5473 5474 5474 5475 5476 5477 5478 5479 5479 5480 5480 5481 5481 5482 5482 5482 5482 5482 5481 5481 5481 5481 5480 5480 5479 5478 5477 5477 5476 5475 5474 5473 5471 5470 5469 5467 5465 5463 5461 5459 5457 5455 5453 5451 5449 5447 5444 5442 5439 5436 5433 5430 5428 5424 5421 5417 5414 5411 5407 5404 5400 5397 5394 5390 5386 5382 5378 5373 5369 5364 5359 5354 5349 5343 5337 5331 5325 5320
5453 5455 5456 5457 5459 5460 5461 5462 5463 5464 5465 5466 5468 5468 5469 5469 5470 5470 5471 5471 5472 5472 5472 5472 5472 5472 5472 5471 5471 5471 5470 5469 5468 5468 5466 5465 5464 5463 5462 5461 5460 5459 5457 5455 5453 5451 5449 5447 5445 5443 5441 5438 5436 5434 5431 5428 5426 5423 5420 5417 5414 5411 5407 5404 5401 5398 5394 5391 5387 5384 5380 5376 5372 5368 5363 5358 5353 5348 5342 5337 5331 5325 5320 5314 5308
5444 5445 5447 5448 5449 5450 5452 5453 5454 5455 5456 5457 5458 5459 5459 5460 5460 5460 5460 5461 5461 5462 5462 5462 5462 5462 5462 5461 5461 5461 5460 5459 5459 5458 5456 5455 5454 5453 5452 5451 5450 5448 5447 5445 5443 5441 5439 5437 5435 5433 5431 5428 5426 5423 5420 5417 5415 5412 5409 5406 5403 5400 5397 5394 5390 5387 5384 5381 5377 5373 5370 5366 5361 5357 5352 5346 5341 5336 5330 5325 5319 5314 5308 5302 5297
5434 5435 5437 5438 5439 5440 5441 5443 5445 5446 5447 5447 5448 5448 5449 5449 5449 5450 5450 5451 5451 5452 5452 5452 5452 5452 5452 5452 5451 5451 5450 5450 5449 5448 5447 5446 5444 5443 5442 5441 5439 5438 5436 5434 5432 5430 5429 5427 5425 5423 5421 5418 5415 5413 5410 5407 5405 5402 5399 5396 5393 5390 5386 5383 5380 5376 5373 5369 5366 5362 5358 5354 5350 5345 5340 5334 5329 5323 5318 5312 5307 5302 5296 5291 5286
5423 5425 5426 5428 5429 5430 5431 5432 5434 5436 5437 5437 5438 5438 5439 5439 5440 5440 5440 5441 5441 5441 5442 5442 5442 5442 5441 5441 5441 5440 5440 5439 5439 5438 5437 5436 5434 5433 5432 5430 5429 5427 5425 5424 5422 5420 5418 5416 5415 5413 5410 5408 5405 5403 5400 5397 5395 5392 5388 5385 5382 5379 5375 5372 5368 5365 5361 5358 5354 5350 5346 5342 5337 5332 5327 5321 5316 5311 5305 5300 5295 5290 5285 5280 5275
5413 5415 5416 5417 5419 5420 5421 5421 5423 5424 5426 5427 5428 5429 5429 5429 5430 5430 5430 5431 5431 5431 5432 5432 5431 5431 5431 5431 5430 5430 5430 5430 5429 5428 5427 5425 5424 5423 5422 5420 5418 5417 5415 5413 5411 5410 5408 5406 5404 5402 5400 5398 5395 5393 5390 5388 5385 5381 5378 5375 5371 5368 5364 5361 5357 5354 5350 5346 5342 5338 5333 5329 5324 5319 5313 5308 5303 5298 5292 5287 5283 5278 5273 5269 5265